This is the latest recevied weather packets stored in our database for station/object G4KVI. If no packets are shown the sender has not sent any weather packets the latest 10 day(s).
| Time | Temp. | Humidity | Pressure | Rain* | Wind** | Luminosity | Snow |
|---|---|---|---|---|---|---|---|
| 1788248405 | 16.11° C | 85% | 1023.4 hPa | 0 mm | - | 145 W/m² | - |
| 1788248105 | 15.56° C | 89% | 1023.1 hPa | 0 mm | - | 143 W/m² | - |
| 1788247805 | 15.56° C | 92% | 1023.4 hPa | 0 mm | - | 173 W/m² | - |
| 1788247505 | 15° C | 94% | 1023 hPa | 0 mm | - | 180 W/m² | - |
| 1788247205 | 13.89° C | 94% | 1023 hPa | 0 mm | - | 133 W/m² | - |
| 1788246905 | 13.33° C | 93% | 1023.2 hPa | 0 mm | - | 75 W/m² | - |
| 1788246605 | 13.33° C | 93% | 1023.2 hPa | 0 mm | - | 60 W/m² | - |
| 1788246305 | 13.33° C | 93% | 1023.1 hPa | 0.25 mm | - | 44 W/m² | - |
| 1788246005 | 13.33° C | 93% | 1023.2 hPa | 0.25 mm | - | 42 W/m² | - |
| 1788245705 | 13.33° C | 93% | 1023 hPa | 0.25 mm | - | 41 W/m² | - |
| 1788245405 | 12.78° C | 93% | 1023.1 hPa | 0.25 mm | - | 41 W/m² | - |
| 1788245105 | 12.78° C | 93% | 1022.9 hPa | 0.25 mm | - | 46 W/m² | - |
| 1788244805 | 12.78° C | 93% | 1022.9 hPa | 0.51 mm | - | 40 W/m² | - |
| 1788244505 | 12.78° C | 93% | 1023.1 hPa | 0.51 mm | - | 33 W/m² | - |
| 1788244223 | 12.78° C | 93% | 1022.9 hPa | 0.51 mm | - | 27 W/m² | - |
| 1788243905 | 12.78° C | 93% | 1023 hPa | 0.51 mm | - | 21 W/m² | - |
| 1788243605 | 12.78° C | 92% | 1022.8 hPa | 0.51 mm | - | 21 W/m² | - |
| 1788243305 | 12.78° C | 92% | 1022.9 hPa | 0.51 mm | - | 25 W/m² | - |
| 1788243005 | 12.78° C | 92% | 1022.9 hPa | 0.51 mm | - | 21 W/m² | - |
| 1788242705 | 12.78° C | 92% | 1023 hPa | 0.25 mm | - | 8 W/m² | - |
| 1788242405 | 12.78° C | 92% | 1022.9 hPa | 0.25 mm | - | 10 W/m² | - |
| 1788242105 | 12.78° C | 92% | 1022.7 hPa | 0.25 mm | - | 6 W/m² | - |
| 1788241805 | 12.78° C | 91% | 1022.6 hPa | 0.25 mm | - | 6 W/m² | - |
| 1788241505 | 12.78° C | 91% | 1022.5 hPa | 0.25 mm | - | 4 W/m² | - |
| 1788241205 | 12.78° C | 91% | 1022.4 hPa | 0 mm | - | 3 W/m² | - |
* Rain latest hour (hover to see other rain measurements)
** Current wind speed in m/s (hover to see current wind gust speed)